User: anonymous   Login
Location: Unspecified
(0.0000°N, 0.0000°E)
Time: 18:08:34
(UTC+00:00)
Language:

STARLINK-30950 - Orbit

View from above orbital plane
View from above orbital plane
View from above satellite
View from above satellite

Ground track
Ground track

The orbit is defined by the following mean orbital elements,

1 58440U          26145.45663846 +.00000000 +00000-0 +17754-3 0 00001
2 58440  42.9988 131.5876 0001502 273.6176  86.4504 15.27604153    05
Epoch (UTC): 25 May 2026 10:57:33
Eccentricity: 0.0001502
inclination: 42.9988°
perigee height: 482 km
apogee height: 484 km
right ascension of ascending node: 131.5876°
argument of perigee: 273.6176°
revolutions per day: 15.27604153
mean anomaly at epoch: 86.4504°

The dashed part of the orbit path shows where the satellite is in the earth's shadow,  

DLR